ASTRA 1G

Last updated on Nov. 18, 2019, 4:21 a.m. UTC

1 25071U 97076A   19321.00895920  .00000028  00000-0  00000+0 0  9992
2 25071   4.1563  74.3943 0004204 165.3194 242.5608  1.00270167 80431
UTC
Height (km)
Latitude
Longitude
Inclination
Orbital Period
UTC large
Height (km)
Speed (km/s)
/
Latitude / Longitude
Inclination (degrees)
Orbital Period (minutes)
Azimuth
Elevation
Range (km)
Doppler Factor
iOS Compass Heading
iOS Angle

Next 30 passes for location: Hong Kong

Rise time Rise Azimuth (degrees) Set time Set Azimuth (degrees) Duration Max altitude (degrees)

No matching passes for this satellites